STARLINK-31871, 59673

Orbit data source: Space-Track

STARLINK-31871, 59673 is a payload satellite owned by SpaceX/Seattle (US) in LEO that was launched on Mon, 06 May 2024 UTC via an FALCON 9 launch vehicle from the Air Force Eastern Test Range (AFETR). Payload-class satellites include a variety of spacecraft equipped with specific instruments for various scientific and technological missions. These include communications satellites like Starlink; space stations such as the ISS; scientific satellites like the Hubble; Earth observation satellites from companies like Planet Labs, Umbra, and HawkEye 360; GPS; miniature CubeSats for education and research; and military/defense satellites.

Loading next visibility...
Identifier
59673, 2024-084V
Orbit
LEO
Country
Flag of USUS
Related business
Manufacturer
SpaceX/Seattle
Mission
Operational Commercial Communications
Bus & Motor
STARLINK V2M, Unknown motor
Mass
730 kg wet, ~700 kg dry
Launch date (UTC)
2024-05-06 (1 year ago)
Launch vehicle
FALCON 9
Launch site
Air Force Eastern Test Range (AFETR)
Object type
Payload
Rocket body
Debris
Shape & HBR
Box + 2 Pan, 17.7 m
Radar Cross Section
33.884 m², Large (>1 m²)

Expand to show TLE details & history
Last TLE update: 19 hours ago

TLE from 19 hours ago
0 STARLINK-31871
1 59673U 24084V   25288.00549061  .00000199  00000-0  16758-4 0  9998
2 59673  43.0031 144.4472 0001515 263.2059  96.8620 15.27567255 82093
Epoch: 2025-10-15T00:07Z
TLE epoch observation values (Epoch: 2025-10-15T00:07:54.388Z)
Latitude
-0.00005°
Longitude
118.68476°
Altitude
482.987 km
Speed
7.626 km/s
True Right ascension
09h 37m 47s
True Declination
0° 00' 00"
Sunlit
Object was in daylight at epoch
Visualization orbit readout
Latitude
Unknown
Longitude
Unknown
Altitude
Unknown
Speed
Unknown
Apparent Right ascension
Unknown
Apparent Declination
Unknown
Sunlit
N/A
Visualization observer readout
Local Sidereal Time
13:47:01
Azimuth
Unknown
Elevation
Unknown
Doppler factor
Unknown
Orbital elements
Apogee altitude
486.072 km
Perigee altitude
483.992 km
Semi-major axis
6,863.169 km
Eccentricity
0.00015
Inclination
43.0031°
RAAN
144.4472°
Arg. of periapsis
263.2059°
True anomaly
96.87924°
Mean anomaly
96.862°
Eccentric anomaly
96.87062°
Mean motion
3.8173 °/min
Orbital period
94.31 mins
BSTAR
0.000016758
Loading maneuver chart data...
Computing Atmospheric mass density...
Loading historical data...
Loading historical data...
Loading historical data...
Loading historical data...
Loading historical data...
Loading historical data...
Loading historical data...

Documentation

Showing up to 5 results
|